Weather History for Wadesboro, NC

Change the Weather History Date:

Saturday, December 21, 2013

  Actual Average (KCLT) Record (KCLT)
Temperature  
Mean Temperature 58 °F 41 °F  
Max Temperature 74 °F 52 °F 73 °F (2013)
Min Temperature 43 °F 31 °F 10 °F (1901)
Degree Days  
Heating Degree Days 6 24  
Month to date heating degree days 456  
Since 1 July heating degree days 1092  
Cooling Degree Days 0 0  
Month to date cooling degree days 0  
Year to date cooling degree days 1517  
Growing Degree Days 8 (Base 50)    
Moisture  
Dew Point 55 °F    
Average Humidity 81    
Maximum Humidity 96    
Minimum Humidity 56    
Precipitation  
Precipitation 0.00 in 0.10 in 2.19 in (1878)
Month to date precipitation 2.20  
Year to date precipitation 40.58  
Snow  
Snow 0.00 in 0.00 in 1.00 in (1973)
Month to date snowfall 0.1  
Since 1 July snowfall 0.2  
Snow Depth -    
Sea Level Pressure  
Sea Level Pressure 30.10 in    
Wind  
Wind Speed 3 mph (SSE)    
Max Wind Speed 16 mph    
Max Gust Speed 25 mph    
Visibility 10 miles    
Events      
T = Trace of Precipitation, MM = Missing Value Source: NWS Daily Summary

Daily Weather History Graph

Daily Weather History Graph

Search for Another Location

Airport:

Trip Planner

Search our weather history database for the weather conditions in past years. The results will help you decide how hot, cold, wet, or windy it might be!

Date:

Astronomy

Dec. 21, 2013 Rise Set
Actual Time 7:24 AM EST 5:12 PM EST
Civil Twilight 6:56 AM EST 5:40 PM EST
Nautical Twilight 6:24 AM EST 6:12 PM EST
Astronomical Twilight 5:53 AM EST 6:43 PM EST
Moon 9:18 PM EST (12/21) 9:57 AM EST (12/21)
Length of Visible Light 10h 44m
Length of Day
9h 48m
Waning Gibbous, 84% of the Moon is Illuminated
Dec 21
Waning Gibbous
Dec 25
Last Quarter
Jan 1
New
Jan 7
First Quarter
Jan 15
Full

Hourly Weather History & Observations

Time (EST) Temp. Dew Point Humidity Pressure Visibility Wind Dir Wind Speed Gust Speed Precip Events Conditions
12:15 AM 48.6 °F 46.4 °F 92% 30.16 in 10.0 mi Calm Calm - N/A   Mostly Cloudy
12:35 AM 47.7 °F 45.7 °F 93% 30.16 in 10.0 mi Calm Calm - N/A   Mostly Cloudy
12:55 AM 48.4 °F 45.9 °F 91% 30.15 in 10.0 mi Calm Calm - N/A   Scattered Clouds
1:15 AM 47.5 °F 45.0 °F 91% 30.15 in 10.0 mi Calm Calm - N/A   Clear
1:35 AM 47.3 °F 45.5 °F 93% 30.14 in 10.0 mi Calm Calm - N/A   Scattered Clouds
1:55 AM 47.3 °F 45.1 °F 92% 30.15 in 10.0 mi Calm Calm - N/A   Clear
2:15 AM 46.4 °F 44.4 °F 93% 30.15 in 10.0 mi Calm Calm - N/A   Mostly Cloudy
2:35 AM 45.5 °F 43.9 °F 94% 30.14 in 10.0 mi Calm Calm - N/A   Mostly Cloudy
2:55 AM 46.2 °F 45.0 °F 95% 30.14 in 10.0 mi Calm Calm - N/A   Scattered Clouds
3:15 AM 45.0 °F 43.5 °F 95% 30.14 in 10.0 mi Calm Calm - N/A   Clear
3:35 AM 45.0 °F 43.7 °F 95% 30.14 in 10.0 mi Calm Calm - N/A   Scattered Clouds
3:55 AM 44.6 °F 43.2 °F 95% 30.14 in 10.0 mi Calm Calm - N/A   Scattered Clouds
4:15 AM 44.6 °F 43.2 °F 95% 30.14 in 10.0 mi Calm Calm - N/A   Scattered Clouds
4:35 AM 43.9 °F 42.4 °F 95% 30.14 in 10.0 mi Calm Calm - N/A   Scattered Clouds
4:55 AM 44.2 °F 43.0 °F 95% 30.13 in 10.0 mi Calm Calm - N/A   Mostly Cloudy
5:15 AM 43.7 °F 42.3 °F 95% 30.13 in 10.0 mi Calm Calm - N/A   Scattered Clouds
5:35 AM 43.7 °F 42.4 °F 95% 30.13 in 10.0 mi Calm Calm - N/A   Clear
5:55 AM 44.4 °F 43.3 °F 96% 30.13 in 10.0 mi Calm Calm - N/A   Scattered Clouds
6:15 AM 43.9 °F 42.8 °F 96% 30.14 in 10.0 mi Calm Calm - N/A   Mostly Cloudy
6:35 AM 44.1 °F 42.3 °F 93% 30.14 in 10.0 mi Calm Calm - N/A   Mostly Cloudy
6:55 AM 46.2 °F 44.1 °F 92% 30.14 in 10.0 mi Calm Calm - N/A   Overcast
7:15 AM 48.6 °F 46.6 °F 93% 30.14 in 10.0 mi Calm Calm - N/A   Mostly Cloudy
7:35 AM 50.7 °F 48.4 °F 92% 30.15 in 10.0 mi Calm Calm - N/A   Scattered Clouds
7:55 AM 52.9 °F 50.7 °F 92% 30.14 in 10.0 mi SSE 3.5 mph - N/A   Scattered Clouds
8:15 AM 55.4 °F 52.5 °F 90% 30.14 in 10.0 mi South 3.5 mph - N/A   Clear
8:35 AM 56.8 °F 53.1 °F 87% 30.14 in 10.0 mi South 4.6 mph - N/A   Clear
8:55 AM 58.1 °F 53.8 °F 86% 30.15 in 10.0 mi South 3.5 mph - N/A   Clear
9:15 AM 59.9 °F 54.0 °F 81% 30.15 in 10.0 mi South 4.6 mph - N/A   Clear
9:35 AM 60.6 °F 54.7 °F 81% 30.15 in 10.0 mi Calm Calm - N/A   Scattered Clouds
9:55 AM 61.7 °F 55.4 °F 80% 30.15 in 10.0 mi South 4.6 mph - N/A   Mostly Cloudy
10:15 AM 62.6 °F 56.3 °F 80% 30.16 in 10.0 mi Calm Calm - N/A   Overcast
10:35 AM 63.9 °F 56.5 °F 77% 30.15 in 10.0 mi Calm Calm - N/A   Overcast
10:55 AM 65.3 °F 57.7 °F 76% 30.15 in 10.0 mi Calm Calm - N/A   Overcast
11:15 AM 67.5 °F 57.6 °F 70% 30.14 in 10.0 mi South 8.1 mph - N/A   Mostly Cloudy
11:35 AM 68.5 °F 57.6 °F 68% 30.13 in 10.0 mi SSW 6.9 mph - N/A   Clear
11:55 AM 69.1 °F 58.1 °F 68% 30.12 in 10.0 mi South 4.6 mph - N/A   Clear
12:15 PM 71.2 °F 58.3 °F 64% 30.11 in 10.0 mi South 8.1 mph - N/A   Scattered Clouds
12:35 PM 72.7 °F 58.3 °F 60% 30.09 in 10.0 mi South 4.6 mph - N/A   Scattered Clouds
12:55 PM 73.9 °F 57.6 °F 56% 30.09 in 10.0 mi South 10.4 mph - N/A   Clear
1:15 PM 73.4 °F 57.4 °F 57% 30.08 in 10.0 mi South 9.2 mph - N/A   Mostly Cloudy
1:35 PM 73.8 °F 57.7 °F 57% 30.08 in 10.0 mi South 8.1 mph - N/A   Overcast
1:55 PM 74.1 °F 58.1 °F 57% 30.06 in 10.0 mi South 9.2 mph - N/A   Overcast
2:15 PM 73.4 °F 58.3 °F 59% 30.06 in 10.0 mi South 6.9 mph - N/A   Overcast
2:35 PM 74.1 °F 59.0 °F 59% 30.05 in 10.0 mi SSE 5.8 mph - N/A   Overcast
2:55 PM 73.4 °F 58.1 °F 59% 30.06 in 10.0 mi SSE 8.1 mph - N/A   Mostly Cloudy
3:15 PM 72.5 °F 58.8 °F 62% 30.06 in 10.0 mi South 5.8 mph - N/A   Mostly Cloudy
3:35 PM 72.5 °F 59.4 °F 63% 30.06 in 10.0 mi SSE 4.6 mph - N/A   Overcast
3:55 PM 72.1 °F 59.9 °F 65% 30.05 in 10.0 mi SSE 5.8 mph - N/A   Overcast
4:15 PM 72.1 °F 60.4 °F 67% 30.05 in 10.0 mi ESE 3.5 mph - N/A   Overcast
4:35 PM 71.6 °F 60.8 °F 69% 30.05 in 10.0 mi Calm Calm - N/A   Overcast
4:55 PM 71.6 °F 61.2 °F 70% 30.05 in 10.0 mi Calm Calm - N/A   Overcast
5:15 PM 69.4 °F 61.3 °F 75% 30.05 in 10.0 mi Calm Calm - N/A   Overcast
5:35 PM 67.1 °F 60.8 °F 80% 30.05 in 10.0 mi SE 3.5 mph - N/A   Scattered Clouds
5:55 PM 65.5 °F 61.0 °F 85% 30.06 in 10.0 mi SE 3.5 mph - N/A   Clear
6:15 PM 64.6 °F 60.6 °F 87% 30.06 in 10.0 mi SE 5.8 mph - N/A   Scattered Clouds
6:35 PM 69.6 °F 62.6 °F 78% 30.06 in 10.0 mi SSE 6.9 mph - N/A   Overcast
6:55 PM 70.0 °F 62.2 °F 76% 30.07 in 10.0 mi SSE 6.9 mph - N/A   Overcast
7:15 PM 69.3 °F 62.1 °F 78% 30.07 in 10.0 mi SE 6.9 mph - N/A   Overcast
7:35 PM 69.6 °F 62.2 °F 77% 30.07 in 10.0 mi SSE 8.1 mph - N/A   Overcast
7:55 PM 70.2 °F 62.2 °F 76% 30.06 in 10.0 mi SSE 10.4 mph - N/A   Overcast
8:15 PM 69.8 °F 62.4 °F 77% 30.07 in 10.0 mi SSE 12.7 mph 17.3 mph N/A   Scattered Clouds
8:35 PM 70.5 °F 62.6 °F 76% 30.05 in 10.0 mi SSE 12.7 mph 20.7 mph N/A   Clear
8:55 PM 70.2 °F 62.8 °F 77% 30.05 in 10.0 mi SSE 15.0 mph 20.7 mph N/A   Clear
9:15 PM 70.0 °F 63.3 °F 79% 30.05 in 10.0 mi SSE 10.4 mph 19.6 mph N/A   Clear
9:35 PM 69.6 °F 63.7 °F 81% 30.06 in 10.0 mi South 13.8 mph 20.7 mph N/A   Clear
9:55 PM 69.6 °F 64.4 °F 83% 30.05 in 10.0 mi South 11.5 mph 21.9 mph N/A   Clear
10:15 PM 70.2 °F 64.8 °F 83% 30.06 in 10.0 mi South 12.7 mph 17.3 mph N/A   Mostly Cloudy
10:35 PM 70.5 °F 65.1 °F 83% 30.06 in 10.0 mi SSE 13.8 mph 17.3 mph N/A   Overcast
10:55 PM 70.7 °F 65.5 °F 83% 30.06 in 10.0 mi South 9.2 mph 18.4 mph N/A   Overcast
11:15 PM 70.9 °F 65.5 °F 83% 30.06 in 10.0 mi South 15.0 mph 25.3 mph N/A   Overcast
11:35 PM 70.7 °F 65.3 °F 83% 30.06 in 10.0 mi South 13.8 mph 21.9 mph N/A   Mostly Cloudy
11:55 PM 70.7 °F 65.3 °F 83% 30.05 in 10.0 mi South 16.1 mph 25.3 mph N/A   Scattered Clouds